Weather History for McGuire AFB, NJ

Change the Weather History Date:

Monday, October 8, 2012

  Actual Average Record
Temperature  
Mean Temperature 46 °F -  
Max Temperature 52 °F 67 °F 88 °F (2007)
Min Temperature 41 °F 46 °F 33 °F (1999)
Degree Days  
Heating Degree Days 18    
Moisture  
Dew Point 42 °F    
Average Humidity 85    
Maximum Humidity 100    
Minimum Humidity 62    
Precipitation  
Precipitation 0.00 in - - ()
Sea Level Pressure  
Sea Level Pressure 30.19 in    
Wind  
Wind Speed 3 mph (NW)    
Max Wind Speed 9 mph    
Max Gust Speed -    
Visibility 8 miles    
Events Rain    
Averages and records for this station are not official NWS values.
T = Trace of Precipitation, MM = Missing Value Source: NWS Daily Summary

Daily Weather History Graph

Daily Weather History Graph

Search for Another Location

Airport:

Trip Planner

Search our weather history database for the weather conditions in past years. The results will help you decide how hot, cold, wet, or windy it might be!

Date:

Astronomy

Oct. 08, 2012 Rise Set
Actual Time 7:02 AM EDT 6:28 PM EDT
Civil Twilight 6:34 AM EDT 6:55 PM EDT
Nautical Twilight 6:03 AM EDT 7:27 PM EDT
Astronomical Twilight 5:32 AM EDT 7:58 PM EDT
Moon No Moon Rise 2:16 PM EDT (10/8)
Length of Visible Light 12h 20m
Length of Day
11h 26m
Waning Gibbous, 46% of the Moon is Illuminated
Oct 8
Waning Gibbous
Oct 15
New
Oct 21
First Quarter
Oct 29
Full
Nov 6
Last Quarter

Hourly Weather History & Observations

Time (EDT) Temp. Windchill Dew Point Humidity Pressure Visibility Wind Dir Wind Speed Gust Speed Precip Events Conditions
12:43 AM 46.4 °F 45.2 °F 44.6 °F 93% 30.12 in 8.0 mi West 3.5 mph - N/A   Clear
12:55 AM 46.2 °F 45.0 °F 45.1 °F 96% 30.12 in 7.0 mi West 3.5 mph - N/A   Clear
1:03 AM 46.4 °F 45.2 °F 44.6 °F 93% 30.13 in 7.0 mi West 3.5 mph - N/A   Clear
1:16 AM 46.4 °F 45.2 °F 44.6 °F 93% 30.12 in 9.0 mi West 3.5 mph - N/A   Clear
1:30 AM 44.6 °F - 44.6 °F 100% 30.12 in 9.0 mi Calm Calm - N/A   Clear
1:35 AM 44.6 °F - 42.8 °F 93% 30.12 in 2.5 mi Calm Calm - N/A   Clear
1:37 AM 44.6 °F - 42.8 °F 93% 30.12 in 1.8 mi Calm Calm - N/A   Clear
1:39 AM 44.6 °F - 42.8 °F 93% 30.12 in 1.5 mi Calm Calm - N/A   Clear
1:41 AM 44.6 °F - 42.8 °F 93% 30.13 in 1.5 mi Calm Calm - N/A   Clear
1:44 AM 44.6 °F - 42.8 °F 93% 30.13 in 1.8 mi Calm Calm - N/A   Clear
1:45 AM 44.6 °F - 42.8 °F 93% 30.13 in 2.0 mi Calm Calm - N/A   Clear
1:52 AM 44.6 °F 43.1 °F 42.8 °F 93% 30.13 in 3.0 mi West 3.5 mph - N/A   Clear
1:53 AM 44.6 °F 43.1 °F 42.8 °F 93% 30.13 in 3.0 mi West 3.5 mph - N/A   Clear
1:54 AM 44.6 °F 43.1 °F 42.8 °F 93% 30.13 in 3.0 mi West 3.5 mph - N/A   Clear
1:55 AM 44.6 °F 43.1 °F 43.5 °F 96% 30.13 in 4.0 mi West 3.5 mph - N/A   Clear
2:55 AM 45.1 °F 41.4 °F 44.1 °F 96% 30.14 in 10.0 mi West 6.9 mph - N/A   Clear
3:33 AM 44.6 °F 41.4 °F 42.8 °F 93% 30.14 in 9.0 mi West 5.8 mph - N/A   Clear
3:43 AM 44.6 °F 42.2 °F 42.8 °F 93% 30.15 in 9.0 mi West 4.6 mph - N/A   Clear
3:55 AM 44.1 °F 40.1 °F 42.8 °F 95% 30.14 in 10.0 mi WNW 6.9 mph - N/A   Clear
4:33 AM 42.8 °F 40.1 °F 41.0 °F 93% 30.15 in 7.0 mi WNW 4.6 mph - N/A   Clear
4:39 AM 42.8 °F 40.1 °F 41.0 °F 93% 30.16 in 8.0 mi WNW 4.6 mph - N/A   Clear
4:55 AM 42.8 °F 39.3 °F 41.5 °F 95% 30.16 in 9.0 mi WNW 5.8 mph - N/A   Clear
5:01 AM 42.8 °F 40.1 °F 41.0 °F 93% 30.16 in 9.0 mi WNW 4.6 mph - N/A   Clear
5:03 AM 42.8 °F 40.1 °F 41.0 °F 93% 30.16 in 9.0 mi WNW 4.6 mph - N/A   Clear
5:55 AM 42.3 °F 38.6 °F 41.0 °F 95% 30.18 in 10.0 mi West 5.8 mph - N/A   Clear
6:55 AM 41.5 °F 37.8 °F 40.1 °F 95% 30.20 in 10.0 mi WNW 5.8 mph - N/A   Clear
7:55 AM 43.5 °F 39.4 °F 41.5 °F 93% 30.23 in 10.0 mi NW 6.9 mph - N/A   Clear
8:55 AM 45.3 °F 41.6 °F 42.1 °F 88% 30.25 in 10.0 mi NNW 6.9 mph - N/A   Overcast
9:55 AM 47.1 °F - 41.7 °F 81% 30.27 in 10.0 mi Variable 4.6 mph - N/A   Overcast
10:55 AM 49.3 °F - 41.9 °F 76% 30.26 in 10.0 mi North 9.2 mph - N/A   Mostly Cloudy
11:55 AM 50.7 °F - 40.3 °F 67% 30.27 in 10.0 mi East 3.5 mph - N/A   Partly Cloudy
12:55 PM 50.9 °F - 39.7 °F 66% 30.27 in 10.0 mi Calm Calm - N/A   Partly Cloudy
1:44 PM 51.8 °F - 39.2 °F 62% 30.27 in 10.0 mi North 3.5 mph - N/A Rain Light Rain
1:55 PM 51.1 °F - 41.2 °F 69% 30.25 in 10.0 mi North 3.5 mph - 0.00 in Rain Light Rain
1:59 PM 51.8 °F - 41.0 °F 67% 30.25 in 10.0 mi Calm Calm - N/A   Clear
2:55 PM 51.8 °F - 42.3 °F 70% 30.24 in 10.0 mi NNW 4.6 mph - 0.00 in   Scattered Clouds
3:55 PM 52.2 °F - 42.1 °F 69% 30.24 in 10.0 mi Calm Calm - N/A   Scattered Clouds
4:55 PM 52.2 °F - 41.7 °F 68% 30.28 in 10.0 mi WNW 4.6 mph - N/A   Overcast
5:55 PM 51.3 °F - 42.8 °F 73% 30.25 in 10.0 mi North 5.8 mph - N/A   Overcast
6:55 PM 50.7 °F - 42.6 °F 74% 30.22 in 10.0 mi NNE 6.9 mph - N/A   Overcast
7:55 PM 50.4 °F - 43.2 °F 76% 30.24 in 10.0 mi NNE 5.8 mph - N/A   Overcast
8:55 PM 50.2 °F - 44.1 °F 79% 30.24 in 10.0 mi Calm Calm - N/A   Overcast
9:42 PM 50.0 °F - 42.8 °F 76% 30.22 in 10.0 mi NNW 4.6 mph - N/A Rain Light Rain
9:55 PM 50.0 °F - 43.5 °F 78% 30.22 in 10.0 mi North 6.9 mph - 0.00 in Rain Light Rain
9:57 PM 50.0 °F - 42.8 °F 76% 30.22 in 10.0 mi North 8.1 mph - N/A   Overcast
10:55 PM 50.0 °F - 44.1 °F 80% 30.21 in 10.0 mi North 8.1 mph - 0.00 in   Overcast
11:55 PM 49.6 °F - 44.2 °F 82% 30.19 in 10.0 mi NNE 5.8 mph - N/A   Overcast